User: anonymous   Login
Location: *
(50.5492°N, 7.7469°E)
Time: 14:25:26
(UTC+00:00)
Language:

STARLINK-21 - Orbit

View from above orbital plane
View from above orbital plane
View from above satellite
View from above satellite

Ground track
Ground track

The orbit data is extracted from the following two-line orbital elements,

1 44245U 19029L   19341.25001157 -.00006944  00000-0 -38127-3 0  9998
2 44245  53.0000   6.8343 0001333 100.6630 355.7684 15.12165572 29845
Epoch (UTC): 07 December 2019 06:00:01
Eccentricity: 0.0001333
inclination: 53.0000°
perigee height: 528 km
apogee height: 530 km
right ascension of ascending node: 6.8343°
argument of perigee: 100.6630°
revolutions per day: 15.12165572
mean anomaly at epoch: 355.7684°
orbit number at epoch: 2984

The dashed part of the orbit path shows where the satellite is in the earth's shadow,  

DLR